Alderney, United Kingdom

11:56 PM BST on July 26, 2016 (GMT +0100)
Alderney

Weather History for EGJA - November, 2012

Change the Weather History Date:

Sunday, November 4, 2012

  Actual Average Record
Temperature  
Mean Temperature 48 °F -  
Max Temperature 51 °F 51 °F 59 °F (2010)
Min Temperature 44 °F 46 °F 44 °F (2012)
Degree Days  
Heating Degree Days 18    
Moisture  
Dew Point 42 °F    
Average Humidity 76    
Maximum Humidity 87    
Minimum Humidity 62    
Precipitation  
Precipitation 0.00 in - - ()
Sea Level Pressure  
Sea Level Pressure 29.37 in    
Wind  
Wind Speed 20 mph ()    
Max Wind Speed 31 mph    
Max Gust Speed 44 mph    
Visibility 6.0 miles    
Events Rain    
Averages and records for this station are not official NWS values.
T = Trace of Precipitation, MM = Missing Value Source: Averaged Metar Reports

Daily Weather History Graph

Daily Weather History Graph

Search for Another Location

Airport or City:

Trip Planner

Search our weather history database for the weather conditions in past years. The results will help you decide how hot, cold, wet, or windy it might be!

Date:

Astronomy

Nov. 04, 2012 Rise Set
Actual Time 7:03 AM GMT 4:40 PM GMT
Civil Twilight 6:29 AM GMT 5:14 PM GMT
Nautical Twilight 5:50 AM GMT 5:53 PM GMT
Astronomical Twilight 5:13 AM GMT 6:30 PM GMT
Moon 8:58 PM GMT (11/4) 11:45 AM GMT (11/4)
Length of Visible Light 10h 45m
Length of Day
9h 37m
Waning Gibbous, 74% of the Moon is Illuminated
Nov 4
Waning Gibbous
Nov 7
Last Quarter
Nov 13
New
Nov 20
First Quarter
Nov 28
Full

Hourly Weather History & Observations

Time (GMT) Temp. Windchill Dew Point Humidity Pressure Visibility Wind Dir Wind Speed Gust Speed Precip Events Conditions
8:20 AM 44.6 °F 35.1 °F 41.0 °F 87% 29.30 in 6.2 mi West 27.6 mph - N/A   Scattered Clouds
8:50 AM 46.4 °F 37.5 °F 41.0 °F 81% 29.33 in 6.2 mi West 27.6 mph - N/A   Scattered Clouds
9:20 AM 46.4 °F 37.9 °F 41.0 °F 81% 29.36 in 6.2 mi West 25.3 mph - N/A   Scattered Clouds
9:50 AM 48.2 °F - 41.0 °F 76% 29.36 in 6.2 mi West 23.0 mph - N/A   Partly Cloudy
10:20 AM 48.2 °F - 41.0 °F 76% 29.36 in 6.2 mi West 19.6 mph - N/A Rain Light Rain Showers
10:50 AM 48.2 °F - 42.8 °F 82% 29.36 in 6.2 mi WSW 12.7 mph - N/A Rain Light Rain Showers
11:20 AM 48.2 °F - 42.8 °F 82% 29.36 in 6.2 mi SW 21.9 mph - N/A   Scattered Clouds
11:50 AM 50.0 °F - 44.6 °F 82% 29.36 in 5.6 mi SW 18.4 mph - N/A Rain Rain Showers
12:20 PM 50.0 °F - 44.6 °F 82% 29.36 in 4.3 mi SW 31.1 mph 43.7 mph N/A Rain Rain Showers
12:50 PM 48.2 °F - 44.6 °F 87% 29.36 in 4.3 mi SW 25.3 mph 38.0 mph N/A Rain Rain Showers
1:20 PM 50.0 °F - 44.6 °F 82% 29.36 in 6.2 mi SW 19.6 mph 32.2 mph N/A   Scattered Clouds
1:50 PM 50.0 °F - 42.8 °F 76% 29.36 in 6.2 mi WSW 18.4 mph 33.4 mph N/A Rain Light Rain Showers
2:20 PM 51.8 °F - 44.6 °F 76% 29.36 in 6.2 mi West 23.0 mph - N/A   Scattered Clouds
2:50 PM 51.8 °F - 41.0 °F 67% 29.36 in 6.2 mi West 21.9 mph - N/A   Scattered Clouds
3:20 PM 51.8 °F - 41.0 °F 67% 29.36 in 6.2 mi West 23.0 mph - N/A   Scattered Clouds
3:50 PM 51.8 °F - 39.2 °F 62% 29.39 in 6.2 mi West 26.5 mph - N/A   Partly Cloudy
4:20 PM 51.8 °F - 42.8 °F 71% 29.39 in 6.2 mi WSW 18.4 mph - N/A   Scattered Clouds
4:50 PM 50.0 °F - 42.8 °F 76% 29.39 in 6.2 mi WSW 17.3 mph 35.7 mph N/A Rain Light Rain Showers
5:20 PM 50.0 °F - 41.0 °F 71% 29.39 in 6.2 mi WSW 20.7 mph - N/A   Partly Cloudy
5:50 PM 50.0 °F - 39.2 °F 66% 29.39 in 6.2 mi WSW 18.4 mph 33.4 mph N/A   Partly Cloudy
6:20 PM 50.0 °F - 39.2 °F 66% 29.42 in 6.2 mi WSW 18.4 mph 33.4 mph N/A Rain Light Rain Showers